Home > Weather > Syracuse > Past weeks

Flag for U.S.A. Weather for the Past 2 Weeks in Syracuse, New York, U.S.A.

Now
11 °F

Light snow. Ice fog.


Feels Like: -2 °F
Forecast: 12 / 24 °F
Wind: 9 mph from West

Location: Syracuse Hancock International Airport

Current Time: Feb 11, 2016 at 11:24:51 PM

Latest Report: Feb 11, 2016 at 10:54 PM


Visibility: 2 mi

Pressure: 30.18 "Hg

Humidity: 88%

Dew point: 8 °F

Location of SyracuseLocation

Historic Weather in Syracuse — Graph

°F

Syracuse Temperature Yesterday

Maximum temperature yesterday: 30 °F (at 5:54 AM)
Minimum temperature yesterday: 20 °F (at 10:54 PM)
Average temperature yesterday: 27 °F

High & Low Weather Summary for the Past Weeks

 TemperatureHumidityPressure
High54 °F (Jan 31, 7:54 PM)100% (Feb 9, 6:54 PM)30.35 "Hg (Feb 9, 6:54 PM)
Low10 °F (Feb 11, 12:01 PM)41% (Jan 30, 1:54 PM)29.46 "Hg (Jan 29, 4:54 AM)
Average33 °F72%29.88 "Hg
* Reported Jan 27 9:54 PM — Feb 11 9:54 PM, Syracuse, Weather by CustomWeather, © 2016

Note: Actual official high and low records may vary slightly from our data, if they occured in-between our weather recording intervals... More about our weather records

Advertising

Syracuse Weather History for the Previous 24 Hours

 ConditionsComfort  
Time TempWeatherWind HumidityBarometerVisibility
9:54 PM
Thu, Feb 11
11 °FLight snow. Mostly cloudy.7 mph77%30.16 "Hg9 mi
8:54 PM11 °FLight snow. Ice fog.7 mph96%30.15 "Hg1 mi
7:54 PM11 °FLight snow. Ice fog.9 mph92%30.13 "Hg1 mi
6:54 PM11 °FLight snow. Ice fog.15 mph92%30.11 "Hg1 mi
5:54 PM10 °FLight snow. Ice fog.15 mph92%30.09 "Hg1 mi
4:54 PM10 °FSnow. Ice fog.16 mph92%30.05 "Hg1 mi
3:54 PM11 °FSnow. Ice fog.17 mph88%30.02 "Hg1 mi
2:54 PM10 °FLight snow. Mostly cloudy.15 mph88%29.99 "Hg1 mi
1:54 PM10 °FLight snow. Ice fog.20 mph88%29.97 "Hg0 mi
12:54 PM10 °FLight snow. Mostly cloudy.18 mph84%29.96 "Hg1 mi
12:01 PM10 °FLight snow. Mostly cloudy.18 mph80%29.94 "Hg1 mi
10:54 AM11 °FLight snow. Mostly cloudy.22 mph73%29.93 "Hg1 mi
9:54 AM11 °FLight snow. Mostly cloudy.28 mph77%29.90 "Hg1 mi
9:00 AM11 °FLight snow. Cloudy.20 mph81%29.87 "Hg2 mi
8:04 AM13 °FSnow. Ice fog.18 mph92%29.83 "Hg1 mi
7:54 AM13 °FSnow. Ice fog.16 mph88%29.84 "Hg1 mi
6:54 AM14 °FLight snow. Mostly cloudy.18 mph67%29.82 "Hg8 mi
5:54 AM14 °FLight snow. Overcast.16 mph73%29.79 "Hg9 mi
4:54 AM15 °FLight snow. Mostly cloudy.21 mph67%29.78 "Hg9 mi
3:54 AM15 °FOvercast.17 mph70%29.77 "Hg10 mi
2:54 AM17 °FLight snow. Mostly cloudy.16 mph74%29.77 "Hg9 mi
1:54 AM17 °FLight snow. Overcast.16 mph83%29.77 "Hg8 mi
1:01 AM18 °FLight snow. Overcast.18 mph88%29.76 "Hg4 mi
11:54 PM
Wed, Feb 10
20 °FLight snow. Overcast.17 mph92%29.75 "Hg1 mi
Weather by CustomWeather, © 2016

See weather overviewHow to use our weather pages